www.pogodaiklimat.ru

Погода и климат >> Архив погоды >> Индонезия >> Купанг


ПОГОДА в Купанге

  • Прогноз погоды в Купанге
  • Монитор погоды в Купанге

АРХИВ ПОГОДЫ в Купанге

Время (UTC), дата Ветер
(напр.,м/с)
 
Видим.   Явления Облачность Т
(С)
Тd
(С)
f
(%)
Тe
(С)
Тes
(С)
Комфортность P
(гПа)
Po
(гПа)
Тmin
(С)
Tmax
(С)
R
(мм)
R24
(мм)
S
(см)
06 15.05 В 7 10 км 1/1 600 м
[Cu hum Ci fib]
+33.8 +23.0 53 +44 +46 опасность
перегрева
1011.2 999.0
09 15.05 В 5 10 км 1/1 600 м
[Cu hum Ci fib]
+30.3 +21.8 60 +39 +39 очень
душно
1011.8 999.6
12 15.05 ЮВ 6 8000 м 1/1 600 м
[Cu hum Ci fib]
+26.5 +19.9 67 +32 +32 очень
душно
1013.9 1001.7 +33.8
15 15.05 В 5 8000 м 1/1 600 м
[Cu hum Ci fib]
+25.3 +22.5 84 +33 +33 очень
душно
1013.9 1001.7
18 15.05 В 3 8000 м 1/1 600 м
[Cu hum Ci fib]
+24.9 +22.4 86 +33 +33 очень
душно
1012.4 1000.2
21 15.05 В 4 8000 м 1/1 600 м
[Cu hum Ci fib]
+23.5 +20.8 85 +29 +29 душно 1012.2 1000.0
00 16.05 В 5 10 км 1/1 600 м
[Cu hum Ci fib]
+26.0 +22.4 81 +34 +36 очень
душно
1013.6 1001.4 +22.9
03 16.05 В 8 10 км 1/1 600 м
[Cu hum Ci fib]
+33.4 +20.7 47 +40 +43 очень
душно
1013.0 1000.7
06 16.05 В 7 10 км 1/1 600 м
[Cu hum Ci fib]
+34.2 +20.0 43 +40 +43 очень
душно
1010.7 998.6
09 16.05 ЮВ 3 10 км 1/1 600 м
[Cu hum Ci fib]
+30.4 +18.8 50 +36 +36 очень
душно
1011.2 999.0
12 16.05 ЮВ 2 8000 м 3/1 600 м
[Cu hum Ci fib]
+26.0 +23.2 85 +35 +35 очень
душно
1013.2 1001.0 +34.4
15 16.05 штиль 0 8000 м 3/1 600 м
[Cu hum Ci fib]
+25.0 +23.9 94 +34 +34 очень
душно
1013.6 1001.4
18 16.05 штиль 0 8000 м 3/1 600 м
[Cu hum Ci fib]
+22.6 +20.6 88 +29 +29 очень
душно
1012.5 1000.3
21 16.05 штиль 0 8000 м 3/1 600 м
[Cu hum Ci fib]
+22.0 +20.8 93 +28 +28 душно 1012.6 1000.4
00 17.05 СВ 2 10 км 3/1 600 м
[Cu hum Ci fib]
+24.6 +22.6 89 +32 +37 очень
душно
1014.2 1002.0 +22.0
03 17.05 В 4 10 км 4/1 600 м
[Cu hum Ci sp]
+32.0 +23.8 62 +43 +53 опасность
перегрева
1012.9 1000.7
06 17.05 В 4 10 км 4/3 600 м
[Cu hum Ci fib]
+34.6 +20.9 45 +42 +47 опасность
перегрева
1010.2 998.0
09 17.05 Ю 4 10 км 5/5 500 м
[Cu hum Ac trans Ci fib]
+29.8 +24.1 72 +42 +42 опасность
перегрева
1011.1 998.9
12 17.05 ЮВ 2 8000 м 4/4 540 м
[Cu hum Ci fib]
+26.2 +23.4 85 +36 +36 очень
душно
1013.1 1000.9 +34.6
15 17.05 Ю 1 8000 м 4/3 570 м
[Cu hum Ci]
+24.8 +23.1 90 +33 +33 очень
душно
1013.9 1001.6
18 17.05 ЮВ 1 8000 м 4/3 600 м
[Cu hum Ci fib]
+23.4 +21.8 91 +32 +32 очень
душно
1012.9 1000.7
21 17.05 ЮВ 1 8000 м 4/3 600 м
[Cu hum Ci fib]
+22.2 +21.2 94 +29 +29 очень
душно
1012.7 1000.5
00 18.05 В 2 10 км 1/1 600 м
[Cu hum Ci fib]
+25.6 +23.4 88 +35 +39 очень
душно
1014.1 1001.9 +22.0
03 18.05 ЮВ 5 10 км 3/3 600 м
[Cu hum Ci fib]
+31.0 +23.0 62 +41 +47 опасность
перегрева
1013.2 1001.0
06 18.05 ЮВ 6 10 км 3/3 600 м
[Cu hum Ci fib]
+32.0 +23.4 60 +43 +45 опасность
перегрева
1011.0 998.9
09 18.05 ЮВ 4 10 км 3/3 600 м
[Cu hum Ci fib]
+29.3 +24.1 74 +41 +41 опасность
перегрева
1011.5 999.3
12 18.05 СВ 2 8000 м 3/3 600 м
[Cu hum Ci fib]
+27.0 +24.4 86 +38 +38 очень
душно
1013.8 1001.6 +32.5
15 18.05 В 2 8000 м 3/3 600 м
[Cu hum Ci fib]
+25.1 +23.6 91 +34 +34 очень
душно
1014.5 1002.3
18 18.05 ЮВ 1 8000 м 1/1 600 м
[Cu hum Ci fib]
+24.6 +23.5 94 +33 +33 очень
душно
1014.0 1001.8
21 18.05 ЮВ 1 8000 м 1/1 600 м
[Cu hum Ci fib]
+23.6 +22.6 94 +31 +31 очень
душно
1013.5 1001.3
00 19.05 В 5 10 км 1/1 600 м
[Cu hum Ci fib]
+26.7 +23.8 84 +37 +39 очень
душно
1014.9 1002.7 +23.0
03 19.05 ЮВ 6 10 км 5/5 540 м
[Cu Sc Ci fib]
+31.6 +23.8 63 +43 +46 опасность
перегрева
1014.3 1002.1
06 19.05 ЮВ 6 10 км 4/4 540 м
[Cu hum Ci fib]
+32.3 +24.3 63 +45 +47 опасность
перегрева
1011.8 999.6
09 19.05 ЮВ 6 10 км 5/1 540 м
[Cu hum Ci sp]
+29.6 +24.2 73 +41 +41 опасность
перегрева
1011.7 999.5
12 19.05 В 4 8000 м 6/1 540 м
[Cu hum Ci sp]
+27.2 +24.2 84 +38 +38 очень
душно
1013.3 1001.1 +32.4
15 19.05 В 3 8000 м 5/1 540 м
[Cu hum Ci fib]
+26.6 +24.3 87 +37 +37 очень
душно
1014.0 1001.7
18 19.05 ЮВ 6 8000 м 5/1 600 м
[Cu hum Ci fib]
+26.2 +23.7 86 +36 +36 очень
душно
1012.5 1000.4
21 19.05 В 3 8000 м 5/1 600 м
[Cu hum Ci fib]
+25.3 +23.5 90 +34 +34 очень
душно
1012.8 1000.6
00 20.05 В 4 10 км 5/3 570 м
[Cu hum As trans Ci fib]
+27.4 +24.3 83 +38 +40 очень
душно
1014.2 1002.0 +23.9
03 20.05 В 7 10 км 5/3 600 м
[Cu hum As trans Ci fib]
+31.6 +24.3 65 +44 +47 опасность
перегрева
1014.0 1001.8
06 20.05 В 10 10 км 5/4 540 м
[Cu hum Ci sp]
+33.2 +24.0 59 +45 +45 опасность
перегрева
1011.5 999.3
09 20.05 В 8 10 км 6/4 540 м
[Cu hum Ac trans Ci fib]
+30.6 +24.1 68 +42 +42 опасность
перегрева
1012.1 999.9
12 20.05 В 4 8000 м 5/4 540 м
[Cu Sc Ac trans Ci sp]
+27.4 +25.2 88 +40 +40 очень
душно
1014.1 1001.8 +33.6
15 20.05 В 2 8000 м 4/4 540 м
[Cu Sc Ac trans Ci sp]
+26.2 +23.9 87 +36 +36 очень
душно
1014.1 1001.9
18 20.05 В 3 8000 м 3/3 540 м
[Cu hum Ac trans Ci sp]
+25.6 +23.7 89 +35 +35 очень
душно
1012.6 1000.4
21 20.05 В 3 8000 м 3/3 540 м
[Cu hum Ac trans Ci sp]
+25.2 +23.5 90 +34 +34 очень
душно
1013.0 1000.8
00 21.05 В 6 10 км 3/3 540 м
[Cu hum Ci fib]
+27.4 +24.1 82 +38 +39 очень
душно
1014.3 1002.0 +25.0
03 21.05 В 9 10 км 5/5 480 м
[Cu hum Ci fib]
+31.7 +23.9 63 +43 +44 опасность
перегрева
1013.3 1001.1
06 21.05 В 2 10 км 6/6 500 м
[Cu hum As trans Ci fib]
+32.8 +24.1 60 +45 +49 опасность
перегрева
1011.4 999.2
09 21.05 В 6 10 км 5/5 500 м
[Cu hum Ac trans Ci fib]
+28.8 +23.9 75 +40 +40 очень
душно
1012.7 1000.5
12 21.05 ЮВ 4 8000 м {дождь} 6/4 540 м
[Cu hum As trans Ci fib]
+25.6 +22.5 83 +34 +34 очень
душно
1014.5 1002.2 +33.4 0.0
15 21.05 В 5 8000 м 6/4 540 м
[Cu hum Ac trans Ci fib]
+25.0 +23.1 89 +33 +33 очень
душно
1014.5 1002.2
18 21.05 ЮВ 5 8000 м 4/3 540 м
[Cu hum As trans Ci fib]
+25.0 +23.6 92 +34 +34 очень
душно
1013.4 1001.2
21 21.05 В 3 8000 м 4/3 540 м
[Cu hum As trans Ci fib]
+24.6 +23.8 95 +33 +33 очень
душно
1013.8 1001.6
00 22.05 В 7 10 км 1/1 600 м
[Cu hum Ci fib]
+27.5 +23.2 77 +37 +38 очень
душно
1014.5 1002.3 +24.2 0.0
03 22.05 В 7 10 км 1/1 600 м
[Cu hum Ci fib]
+32.6 +23.3 58 +43 +47 опасность
перегрева
1013.7 1001.5

 

Местоположение метеостанции Купанг (Индонезия): широта -10.16 долгота 123.66 высота над уровнем моря 108 м.

В архиве по умолчанию представлена погода в Купанге за последнюю неделю. Архивные данные за месяц целиком и за предыдущие месяцы, начиная с января 2011 года, Вы можете получить, выбрав интересующий диапазон дат из раскрывающегося списка и нажав кнопку "Ввод!".


*Определитесь, кто Вы:
робот инопланетянин человек

Внимание! Время в таблицах - всемирное. Для получения местного времени необходимо прибавить поправку, которая равна 8 ч.

Смотрите также архив погоды в соседних городах и на ближайших метеорологических станциях:

Погода на Роти (Индонезия) (90 км)
Погода в Сабу (Индонезия) (204 км)
Погода в Ларантуке (Индонезия) (223 км)
Погода в Маумере (Индонезия) (230 км)
Погода на Алоре (Индонезия) (237 км)
Погода в Аэропорту Умбу Механг Кунда (Индонезия) (369 км)
Погода в Рутенге (Индонезия) (391 км)
Погода на Острове Брауз (Западная Австралия, Австралия) (440 км)
Погода на Острове Троутон (Западная Австралия, Австралия) (483 км)
Погода в Трускотте (Западная Австралия, Австралия) (527 км)

Пояснения к столбцам:

Ветер - указаны скорость ветра в м/с - средняя за 10 мин, порывы в срок и между сроками (в фигурных скобках) и направление, откуда дует ветер: С - северный, СВ - северо-восточный, В - восточный, ЮВ - юго-восточный, Ю - южный, ЮЗ - юго-западный, З - западный, СЗ - северо-западный.
Видимость - горизонтальная дальность видимости в метрах или километрах. При видимости от 1 до 10 км при отсутствии осадков обычно наблюдается дымка, при ухудшении видимости до 1 км и менее - туман. В сухую погоду видимость может ухудшаться дымом, пылью или мглою.
Явления - указаны атмосферные явления, наблюдавшиеся в срок или в последний час перед сроком; фигурными скобками обозначены явления, наблюдавшиеся между сроками (за 1-3 часа до срока); квадратными скобками обозначены град или гололедные отложения с указанием их диаметра в мм.
Облачность - указаны через наклонную черту общая и нижняя облачность в баллах и высота нижней границы облаков в метрах; квадратными скобками обозначены формы облаков: Ci - перистые, Cs - перисто-слоистые, Cc - перисто-кучевые, Ac - высококучевые, As - высокослоистые, Sc - слоисто-кучевые, Ns - слоисто-дождевые, Cu - кучевые, Cb - кучево-дождевые. Подробнее классификацию облаков см. в Атласе облаков (PDF).
T - Температура воздуха - температура, измеренная на высоте 2 м над землей.
Td - Температура точки росы - температура, при понижении до которой содержащийся в воздухе водяной пар достигнет насыщения.
f - Относительная влажность воздуха - влажноcть воздуха, измеренная на высоте 2 м над землей.
Te - Эффективная температура - температура, которую ощущает одетый по сезону человек в тени. Характеристика душности погоды. При расчете учитывается влияние влажности воздуха и скорости ветра на теплоощущения человека.
Tes - Эффективная температура на солнце - температура, которую ощущает человек, с поправкой на солнечный нагрев. Характеристика знойности погоды. Зависит от высоты солнца над горизонтом, облачности и скорости ветра. Ночью, в пасмурную погоду, а также при ветре 12 м/с и более поправка равна нулю.
P - Атмосферное давление - приведенное к уровню моря атмосферное давление.
Po - Атмосферное давление - измеренное на уровне метеостанции атмосферное давление.
Tmin - Минимальная температура - минимум температуры воздуха на высоте 2 м над землей.
Tmax - Максимальная температура - максимум температуры воздуха на высоте 2 м над землей.
R - Количество осадков - Количество выпавших осадков за период времени, мм. При наведении курсора мыши на число - период времени, за который выпало указанное количество осадков.
R24 - Количество осадков - Количество выпавших осадков за 24 часа, мм.
S - Снежный покров - Высота снежного покрова, см. При наведении курсора мыши на число - состояние снежного покрова и степень покрытия местности в баллах.